Meteo orario Abdulkasimovo

Oggi, 18 Giugno, Venerdi

Tempo Temperatura Precipitazioni Vento Pressione Umidità
00:00 +13°C° 0 mm 5 m/s 710 mm Hg 69%
01:00 +12°C° 0 mm 5 m/s 710 mm Hg 66%
02:00 +12°C° 0 mm 4 m/s 710 mm Hg 69%
03:00 +11°C° 0 mm 4 m/s 710 mm Hg 73%
04:00 +10°C° 0 mm 3 m/s 711 mm Hg 78%
05:00 +11°C° 0 mm 4 m/s 711 mm Hg 70%
06:00 +12°C° 0 mm 5 m/s 711 mm Hg 62%
07:00 +14°C° 0 mm 5 m/s 712 mm Hg 54%
08:00 +14°C° 0 mm 6 m/s 712 mm Hg 51%
09:00 +15°C° 0 mm 6 m/s 713 mm Hg 48%
10:00 +16°C° 0 mm 7 m/s 713 mm Hg 45%
11:00 +16°C° 0 mm 7 m/s 713 mm Hg 44%
12:00 +16°C° 0 mm 6 m/s 714 mm Hg 43%
13:00 +16°C° 0 mm 6 m/s 714 mm Hg 42%
14:00 +16°C° 0 mm 6 m/s 714 mm Hg 43%
15:00 +16°C° 0 mm 6 m/s 715 mm Hg 44%
16:00 +15°C° 0 mm 5 m/s 715 mm Hg 45%
17:00 +15°C° 0 mm 5 m/s 715 mm Hg 48%
18:00 +14°C° 0 mm 5 m/s 716 mm Hg 50%
19:00 +13°C° 0 mm 4 m/s 716 mm Hg 52%
20:00 +12°C° 0 mm 3 m/s 716 mm Hg 56%
21:00 +10°C° 0 mm 3 m/s 717 mm Hg 60%
22:00 +8°C° 0 mm 2 m/s 717 mm Hg 64%
23:00 +8°C° 0 mm 2 m/s 717 mm Hg 66%

Domani, 19 Giugno, Sabato

Tempo Temperatura Precipitazioni Vento Pressione Umidità
00:00 +7°C° 0 mm 2 m/s 717 mm Hg 68%
01:00 +7°C° 0 mm 2 m/s 717 mm Hg 71%
02:00 +6°C° 0 mm 2 m/s 718 mm Hg 71%
03:00 +6°C° 0 mm 2 m/s 718 mm Hg 72%
04:00 +6°C° 0 mm 2 m/s 718 mm Hg 72%
05:00 +8°C° 0 mm 3 m/s 718 mm Hg 65%
06:00 +10°C° 0 mm 3 m/s 718 mm Hg 57%
07:00 +13°C° 0 mm 4 m/s 718 mm Hg 50%
08:00 +14°C° 0 mm 4 m/s 718 mm Hg 49%
09:00 +15°C° 0 mm 5 m/s 718 mm Hg 48%
10:00 +16°C° 0 mm 6 m/s 718 mm Hg 48%
11:00 +15°C° 0 mm 6 m/s 717 mm Hg 54%
12:00 +14°C° 0 mm 6 m/s 717 mm Hg 60%
13:00 +13°C° 0 mm 6 m/s 717 mm Hg 67%
14:00 +13°C° 0 mm 6 m/s 717 mm Hg 68%
15:00 +13°C° 0 mm 6 m/s 716 mm Hg 70%
16:00 +13°C° 0 mm 6 m/s 716 mm Hg 71%
17:00 +14°C° 0.1 mm 6 m/s 716 mm Hg 73%
18:00 +14°C° 0.1 mm 5 m/s 715 mm Hg 76%
19:00 +15°C° 0.1 mm 5 m/s 715 mm Hg 78%
20:00 +15°C° 0.3 mm 5 m/s 714 mm Hg 82%
21:00 +15°C° 0.3 mm 4 m/s 714 mm Hg 86%
22:00 +15°C° 0.3 mm 4 m/s 714 mm Hg 91%
23:00 +15°C° 0.5 mm 4 m/s 713 mm Hg 92%

Dopodomani, 20 Giugno, Domenica

Tempo Temperatura Precipitazioni Vento Pressione Umidità
00:00 +15°C° 0.5 mm 4 m/s 713 mm Hg 93%
01:00 +15°C° 0.5 mm 4 m/s 713 mm Hg 93%
02:00 +17°C° 0 mm 4 m/s 713 mm Hg 93%
03:00 +16°C° 0 mm 5 m/s 712 mm Hg 92%
04:00 +16°C° 0 mm 5 m/s 712 mm Hg 91%
05:00 +16°C° 0 mm 5 m/s 712 mm Hg 89%
06:00 +17°C° 0 mm 5 m/s 712 mm Hg 86%
07:00 +19°C° 0 mm 6 m/s 712 mm Hg 83%
08:00 +20°C° 0 mm 6 m/s 712 mm Hg 75%
09:00 +21°C° 0 mm 7 m/s 712 mm Hg 67%
10:00 +22°C° 0 mm 8 m/s 712 mm Hg 59%
11:00 +23°C° 0 mm 8 m/s 712 mm Hg 53%
12:00 +24°C° 0 mm 8 m/s 712 mm Hg 46%
13:00 +26°C° 0 mm 9 m/s 712 mm Hg 39%
14:00 +24°C° 0 mm 8 m/s 713 mm Hg 39%
15:00 +23°C° 0 mm 8 m/s 713 mm Hg 39%
16:00 +22°C° 0 mm 7 m/s 713 mm Hg 39%
17:00 +20°C° 0 mm 7 m/s 714 mm Hg 42%
18:00 +17°C° 0 mm 7 m/s 714 mm Hg 45%
19:00 +16°C° 0 mm 7 m/s 714 mm Hg 48%
20:00 +14°C° 0 mm 6 m/s 715 mm Hg 48%
21:00 +13°C° 0 mm 5 m/s 715 mm Hg 48%
22:00 +12°C° 0 mm 5 m/s 715 mm Hg 48%
23:00 +11°C° 0 mm 4 m/s 715 mm Hg 51%

21 Giugno, Lunedi

Tempo Temperatura Precipitazioni Vento Pressione Umidità
00:00 +10°C° 0 mm 4 m/s 715 mm Hg 54%
01:00 +9°C° 0 mm 3 m/s 716 mm Hg 57%
02:00 +9°C° 0 mm 3 m/s 716 mm Hg 60%
03:00 +8°C° 0 mm 3 m/s 716 mm Hg 63%
04:00 +7°C° 0 mm 2 m/s 717 mm Hg 66%
05:00 +9°C° 0 mm 3 m/s 717 mm Hg 59%
06:00 +11°C° 0 mm 3 m/s 717 mm Hg 53%
07:00 +13°C° 0 mm 3 m/s 718 mm Hg 47%
08:00 +14°C° 0 mm 4 m/s 718 mm Hg 42%
09:00 +17°C° 0 mm 4 m/s 718 mm Hg 37%
10:00 +18°C° 0 mm 4 m/s 718 mm Hg 32%
11:00 +19°C° 0 mm 4 m/s 718 mm Hg 30%
12:00 +20°C° 0 mm 4 m/s 718 mm Hg 29%
13:00 +21°C° 0 mm 4 m/s 718 mm Hg 28%
14:00 +21°C° 0 mm 4 m/s 718 mm Hg 31%
15:00 +21°C° 0 mm 4 m/s 718 mm Hg 34%
16:00 +21°C° 0 mm 4 m/s 718 mm Hg 37%
17:00 +20°C° 0 mm 3 m/s 718 mm Hg 45%
18:00 +19°C° 0 mm 2 m/s 718 mm Hg 52%
19:00 +20°C° 0 mm 1 m/s 717 mm Hg 59%
20:00 +18°C° 0 mm 1 m/s 717 mm Hg 63%
21:00 +15°C° 0 mm 2 m/s 717 mm Hg 67%
22:00 +13°C° 0 mm 2 m/s 717 mm Hg 71%
23:00 +13°C° 0 mm 2 m/s 716 mm Hg 73%

22 Giugno, Martedi

Tempo Temperatura Precipitazioni Vento Pressione Umidità
00:00 +13°C° 0 mm 2 m/s 716 mm Hg 75%
01:00 +13°C° 0 mm 2 m/s 715 mm Hg 77%
02:00 +13°C° 0 mm 2 m/s 715 mm Hg 78%
03:00 +13°C° 0 mm 2 m/s 715 mm Hg 79%
04:00 +14°C° 0 mm 2 m/s 715 mm Hg 80%
05:00 +16°C° 0 mm 3 m/s 715 mm Hg 77%
06:00 +18°C° 0 mm 4 m/s 715 mm Hg 74%
07:00 +21°C° 0 mm 4 m/s 715 mm Hg 71%
08:00 +22°C° 0 mm 5 m/s 714 mm Hg 65%
09:00 +25°C° 0 mm 5 m/s 714 mm Hg 58%
10:00 +26°C° 0 mm 6 m/s 714 mm Hg 51%
11:00 +26°C° 0 mm 6 m/s 714 mm Hg 52%
12:00 +27°C° 0 mm 7 m/s 714 mm Hg 53%
13:00 +27°C° 0 mm 7 m/s 714 mm Hg 54%
14:00 +26°C° 0.3 mm 7 m/s 714 mm Hg 59%
15:00 +26°C° 0.3 mm 7 m/s 714 mm Hg 63%
16:00 +24°C° 0.3 mm 6 m/s 714 mm Hg 68%
17:00 +23°C° 1.9 mm 6 m/s 714 mm Hg 74%
18:00 +21°C° 1.9 mm 5 m/s 713 mm Hg 81%
19:00 +19°C° 1.9 mm 4 m/s 713 mm Hg 87%
20:00 +18°C° 0 mm 3 m/s 714 mm Hg 89%
21:00 +17°C° 0 mm 3 m/s 714 mm Hg 91%
22:00 +16°C° 0 mm 2 m/s 714 mm Hg 94%
23:00 +16°C° 0.1 mm 2 m/s 714 mm Hg 94%

23 Giugno, Mercoledi

Tempo Temperatura Precipitazioni Vento Pressione Umidità
00:00 +14°C° 0.1 mm 3 m/s 715 mm Hg 95%
01:00 +13°C° 0.1 mm 3 m/s 715 mm Hg 96%
02:00 +12°C° 0.1 mm 3 m/s 715 mm Hg 96%
03:00 +11°C° 0.1 mm 3 m/s 716 mm Hg 96%
04:00 +11°C° 0.1 mm 3 m/s 716 mm Hg 96%
05:00 +10°C° 0 mm 3 m/s 716 mm Hg 93%
06:00 +10°C° 0 mm 3 m/s 717 mm Hg 90%
07:00 +10°C° 0 mm 3 m/s 717 mm Hg 87%
08:00 +12°C° 0 mm 3 m/s 718 mm Hg 75%
09:00 +14°C° 0 mm 3 m/s 718 mm Hg 63%
10:00 +15°C° 0 mm 4 m/s 718 mm Hg 51%
11:00 +17°C° 0 mm 4 m/s 718 mm Hg 46%
12:00 +18°C° 0 mm 4 m/s 718 mm Hg 41%
13:00 +19°C° 0 mm 4 m/s 719 mm Hg 37%
14:00 +19°C° 0 mm 4 m/s 719 mm Hg 36%
15:00 +20°C° 0 mm 3 m/s 719 mm Hg 35%
16:00 +20°C° 0 mm 3 m/s 719 mm Hg 34%
17:00 +19°C° 0 mm 3 m/s 719 mm Hg 43%
18:00 +18°C° 0 mm 2 m/s 719 mm Hg 51%
19:00 +16°C° 0 mm 2 m/s 719 mm Hg 59%
20:00 +14°C° 0 mm 1 m/s 719 mm Hg 64%
21:00 +13°C° 0 mm 1 m/s 719 mm Hg 69%
22:00 +11°C° 0 mm 1 m/s 719 mm Hg 74%
23:00 +10°C° 0 mm 1 m/s 719 mm Hg 75%
Mostrare altro

Abbiamo bisogno del tuo consenso

Meteoprog e i nostri fornitori di servizi possono memorizzare e accedere a dati personali come cookie, identificatori di dispositivi o altre tecnologie simili sul tuo dispositivo e possono elaborare tali dati per personalizzare i contenuti e gli annunci, nonché fornire funzionalità dei social media e analizzarne il traffico.

  • Archiviare e/o accedere alle informazioni sul tuo dispositivo

    Cookie, identificatori di dispositivi o altre informazioni possono essere memorizzati o resi accessibili sul tuo dispositivo per le finalità sopra indicate.

  • Annunci e contenuti personalizzati, misurazione di annunci e contenuti, approfondimenti sul pubblico e sviluppo di prodotti

    Gli annunci e i contenuti possono essere personalizzati in base a un profilo. È possibile aggiungere più dati per personalizzare meglio annunci e contenuti. È possibile misurare il rendimento degli annunci e dei contenuti. È possibile ricavare informazioni sul pubblico che ha visto gli annunci e i contenuti. Tali dati possono essere utilizzati per sviluppare o migliorare l'esperienza, i sistemi e il software dell'utente.

Cliccando su “Accetto”, acconsenti all'uso di cookie, identificatori di dispositivo, web beacon o altre tecnologie simili. Puoi modificare le impostazioni nel browser del tuo dispositivo.

Per determinati scopi, è possibile fare affidamento su interessi legali, piuttosto che sul consenso. Puoi approfondire questo argomento consultando la nostra Informativa sulla privacy e sui cookie.